• In Belgien
  • Länderverzeichnis
  • Für 7 Tage
  • Wassertemperatur
  • Satellitenkarten
  • Wetterkarte
  • Widgets
  • user-avatar
    Anmelden

    Stündliche Wetter Sydney

    Heute, 23 Februar, Freitag

    Zeit Temperatur Niederschläge Wind Luftdruck Luftfeuchtigkeit
    00:00 +19°C° 0 mm 3 m/S 761 mmHg 85%
    01:00 +19°C° 0 mm 3 m/S 761 mmHg 88%
    02:00 +19°C° 0 mm 3 m/S 761 mmHg 89%
    03:00 +18°C° 0 mm 3 m/S 761 mmHg 90%
    04:00 +18°C° 0 mm 3 m/S 761 mmHg 90%
    05:00 +19°C° 0 mm 3 m/S 761 mmHg 87%
    06:00 +20°C° 0 mm 3 m/S 761 mmHg 84%
    07:00 +21°C° 0 mm 3 m/S 761 mmHg 81%
    08:00 +23°C° 0 mm 4 m/S 761 mmHg 71%
    09:00 +26°C° 0 mm 4 m/S 761 mmHg 61%
    10:00 +29°C° 0 mm 5 m/S 761 mmHg 51%
    11:00 +30°C° 0 mm 5 m/S 760 mmHg 47%
    12:00 +32°C° 0 mm 5 m/S 760 mmHg 43%
    13:00 +33°C° 0 mm 6 m/S 759 mmHg 40%
    14:00 +33°C° 0 mm 6 m/S 759 mmHg 42%
    15:00 +33°C° 0 mm 7 m/S 758 mmHg 44%
    16:00 +33°C° 0 mm 7 m/S 758 mmHg 46%
    17:00 +30°C° 0 mm 7 m/S 758 mmHg 54%
    18:00 +28°C° 0 mm 7 m/S 758 mmHg 62%
    19:00 +26°C° 0 mm 7 m/S 758 mmHg 70%
    20:00 +24°C° 0 mm 7 m/S 759 mmHg 73%
    21:00 +24°C° 0 mm 6 m/S 759 mmHg 75%
    22:00 +23°C° 0 mm 6 m/S 759 mmHg 78%
    23:00 +23°C° 0 mm 6 m/S 758 mmHg 80%

    Morgen, 24 Februar, Samstag

    Zeit Temperatur Niederschläge Wind Luftdruck Luftfeuchtigkeit
    00:00 +22°C° 0 mm 5 m/S 758 mmHg 83%
    01:00 +22°C° 0 mm 5 m/S 758 mmHg 86%
    02:00 +21°C° 0 mm 5 m/S 758 mmHg 87%
    03:00 +21°C° 0 mm 5 m/S 757 mmHg 88%
    04:00 +21°C° 0 mm 4 m/S 757 mmHg 89%
    05:00 +21°C° 0 mm 4 m/S 757 mmHg 85%
    06:00 +22°C° 0 mm 4 m/S 757 mmHg 82%
    07:00 +23°C° 0 mm 4 m/S 757 mmHg 79%
    08:00 +27°C° 0 mm 4 m/S 757 mmHg 66%
    09:00 +30°C° 0 mm 4 m/S 757 mmHg 53%
    10:00 +35°C° 0 mm 4 m/S 756 mmHg 40%
    11:00 +36°C° 0 mm 5 m/S 756 mmHg 35%
    12:00 +39°C° 0 mm 5 m/S 755 mmHg 30%
    13:00 +41°C° 0 mm 6 m/S 754 mmHg 25%
    14:00 +40°C° 0 mm 6 m/S 754 mmHg 29%
    15:00 +38°C° 0 mm 7 m/S 753 mmHg 33%
    16:00 +36°C° 0 mm 7 m/S 753 mmHg 37%
    17:00 +34°C° 0 mm 7 m/S 753 mmHg 44%
    18:00 +33°C° 0 mm 8 m/S 753 mmHg 51%
    19:00 +31°C° 0 mm 8 m/S 753 mmHg 58%
    20:00 +30°C° 0 mm 7 m/S 753 mmHg 61%
    21:00 +29°C° 0 mm 7 m/S 753 mmHg 63%
    22:00 +29°C° 0 mm 6 m/S 753 mmHg 66%
    23:00 +28°C° 0 mm 5 m/S 753 mmHg 66%

    übermorgen, 25 Februar, Sonntag

    Zeit Temperatur Niederschläge Wind Luftdruck Luftfeuchtigkeit
    00:00 +28°C° 0 mm 5 m/S 752 mmHg 66%
    01:00 +27°C° 0 mm 4 m/S 752 mmHg 66%
    02:00 +26°C° 0,5 mm 5 m/S 752 mmHg 70%
    03:00 +26°C° 0,5 mm 5 m/S 752 mmHg 75%
    04:00 +24°C° 0,5 mm 6 m/S 752 mmHg 79%
    05:00 +23°C° 0,9 mm 7 m/S 753 mmHg 82%
    06:00 +23°C° 0,9 mm 8 m/S 754 mmHg 85%
    07:00 +22°C° 0,9 mm 8 m/S 755 mmHg 88%
    08:00 +22°C° 0,3 mm 8 m/S 756 mmHg 87%
    09:00 +21°C° 0,3 mm 8 m/S 756 mmHg 86%
    10:00 +21°C° 0,3 mm 8 m/S 757 mmHg 85%
    11:00 +20°C° 0,6 mm 8 m/S 757 mmHg 86%
    12:00 +20°C° 0,6 mm 7 m/S 757 mmHg 86%
    13:00 +18°C° 0,6 mm 7 m/S 758 mmHg 87%
    14:00 +18°C° 0,2 mm 7 m/S 758 mmHg 86%
    15:00 +20°C° 0,2 mm 7 m/S 758 mmHg 84%
    16:00 +20°C° 0,2 mm 7 m/S 758 mmHg 83%
    17:00 +20°C° 0,1 mm 6 m/S 758 mmHg 81%
    18:00 +20°C° 0,1 mm 6 m/S 759 mmHg 80%
    19:00 +20°C° 0,1 mm 6 m/S 759 mmHg 78%
    20:00 +20°C° 0,1 mm 6 m/S 760 mmHg 79%
    21:00 +20°C° 0,1 mm 6 m/S 760 mmHg 80%
    22:00 +20°C° 0,1 mm 7 m/S 761 mmHg 81%
    23:00 +20°C° 0,1 mm 6 m/S 760 mmHg 80%

    26 Februar, Montag

    Zeit Temperatur Niederschläge Wind Luftdruck Luftfeuchtigkeit
    00:00 +20°C° 0,1 mm 6 m/S 760 mmHg 79%
    01:00 +19°C° 0,1 mm 6 m/S 760 mmHg 78%
    02:00 +19°C° 0 mm 6 m/S 760 mmHg 78%
    03:00 +19°C° 0 mm 5 m/S 760 mmHg 77%
    04:00 +19°C° 0 mm 5 m/S 760 mmHg 76%
    05:00 +20°C° 0 mm 5 m/S 761 mmHg 75%
    06:00 +20°C° 0 mm 5 m/S 761 mmHg 75%
    07:00 +20°C° 0 mm 5 m/S 762 mmHg 75%
    08:00 +20°C° 0,1 mm 5 m/S 762 mmHg 72%
    09:00 +21°C° 0,1 mm 5 m/S 762 mmHg 69%
    10:00 +21°C° 0,1 mm 5 m/S 763 mmHg 67%
    11:00 +21°C° 0,1 mm 5 m/S 763 mmHg 69%
    12:00 +21°C° 0,1 mm 5 m/S 762 mmHg 70%
    13:00 +20°C° 0,1 mm 4 m/S 762 mmHg 72%
    14:00 +22°C° 0 mm 4 m/S 762 mmHg 66%
    15:00 +23°C° 0 mm 5 m/S 762 mmHg 60%
    16:00 +25°C° 0 mm 5 m/S 762 mmHg 54%
    17:00 +23°C° 0,1 mm 5 m/S 762 mmHg 61%
    18:00 +22°C° 0,1 mm 5 m/S 762 mmHg 67%
    19:00 +20°C° 0,1 mm 4 m/S 763 mmHg 74%
    20:00 +20°C° 0,1 mm 4 m/S 763 mmHg 77%
    21:00 +20°C° 0,1 mm 4 m/S 763 mmHg 80%
    22:00 +19°C° 0,1 mm 4 m/S 764 mmHg 83%
    23:00 +19°C° 0,1 mm 4 m/S 764 mmHg 83%

    27 Februar, Dienstag

    Zeit Temperatur Niederschläge Wind Luftdruck Luftfeuchtigkeit
    00:00 +19°C° 0,1 mm 4 m/S 763 mmHg 84%
    01:00 +19°C° 0,1 mm 4 m/S 763 mmHg 84%
    02:00 +19°C° 0 mm 4 m/S 763 mmHg 85%
    03:00 +19°C° 0 mm 3 m/S 763 mmHg 85%
    04:00 +18°C° 0 mm 3 m/S 763 mmHg 86%
    05:00 +19°C° 0 mm 3 m/S 763 mmHg 84%
    06:00 +20°C° 0 mm 3 m/S 764 mmHg 82%
    07:00 +20°C° 0 mm 3 m/S 764 mmHg 80%
    08:00 +21°C° 0 mm 3 m/S 764 mmHg 74%
    09:00 +22°C° 0 mm 4 m/S 764 mmHg 67%
    10:00 +25°C° 0 mm 4 m/S 764 mmHg 61%
    11:00 +26°C° 0 mm 4 m/S 764 mmHg 57%
    12:00 +26°C° 0 mm 5 m/S 763 mmHg 53%
    13:00 +27°C° 0 mm 5 m/S 763 mmHg 50%
    14:00 +27°C° 0 mm 5 m/S 762 mmHg 51%
    15:00 +27°C° 0 mm 5 m/S 762 mmHg 53%
    16:00 +27°C° 0 mm 5 m/S 762 mmHg 55%
    17:00 +25°C° 0 mm 4 m/S 762 mmHg 60%
    18:00 +23°C° 0 mm 4 m/S 762 mmHg 65%
    19:00 +22°C° 0 mm 4 m/S 762 mmHg 71%
    20:00 +21°C° 0 mm 4 m/S 762 mmHg 75%
    21:00 +21°C° 0 mm 4 m/S 763 mmHg 79%
    22:00 +20°C° 0 mm 4 m/S 763 mmHg 83%
    23:00 +20°C° 0 mm 3 m/S 762 mmHg 85%

    28 Februar, Mittwoch

    Zeit Temperatur Niederschläge Wind Luftdruck Luftfeuchtigkeit
    00:00 +19°C° 0 mm 3 m/S 762 mmHg 87%
    01:00 +19°C° 0 mm 3 m/S 762 mmHg 89%
    02:00 +19°C° 0 mm 3 m/S 762 mmHg 91%
    03:00 +18°C° 0 mm 3 m/S 761 mmHg 93%
    04:00 +18°C° 0 mm 3 m/S 761 mmHg 94%
    05:00 +18°C° 0 mm 3 m/S 761 mmHg 92%
    06:00 +19°C° 0 mm 3 m/S 761 mmHg 89%
    07:00 +20°C° 0 mm 3 m/S 761 mmHg 86%
    08:00 +22°C° 0 mm 4 m/S 761 mmHg 74%
    09:00 +26°C° 0 mm 4 m/S 761 mmHg 61%
    10:00 +29°C° 0 mm 5 m/S 760 mmHg 49%
    11:00 +32°C° 0 mm 5 m/S 760 mmHg 44%
    12:00 +34°C° 0 mm 6 m/S 759 mmHg 39%
    13:00 +36°C° 0 mm 6 m/S 758 mmHg 34%
    14:00 +36°C° 0 mm 6 m/S 758 mmHg 36%
    15:00 +35°C° 0 mm 7 m/S 758 mmHg 38%
    16:00 +35°C° 0 mm 7 m/S 757 mmHg 40%
    17:00 +33°C° 0 mm 7 m/S 758 mmHg 49%
    18:00 +30°C° 0 mm 7 m/S 758 mmHg 57%
    19:00 +28°C° 0 mm 7 m/S 758 mmHg 66%
    20:00 +27°C° 0 mm 6 m/S 758 mmHg 71%
    21:00 +26°C° 0 mm 6 m/S 759 mmHg 75%
    22:00 +24°C° 0 mm 6 m/S 759 mmHg 80%
    23:00 +25°C° 0 mm 5 m/S 759 mmHg 82%
    Mehr zeigen